Jackson, TN

4:30 PM CDT on April 23, 2018 (GMT -0500)
McKellar-Sipes Regional

Weather History for KMKL - November, 2013

Change the Weather History Date:

Friday, November 22, 2013

  Actual Average Record
Temperature  
Mean Temperature 52 °F 48 °F  
Max Temperature 60 °F 59 °F 75 °F (2003)
Min Temperature 44 °F 37 °F 14 °F (1964)
Degree Days  
Heating Degree Days 13 17  
Month to date heating degree days 337 299  
Since 1 July heating degree days 542 513  
Cooling Degree Days 0 0  
Month to date cooling degree days 0 2  
Year to date cooling degree days 1592 1693  
Growing Degree Days 2 (Base 50)    
Moisture  
Dew Point 52 °F    
Average Humidity 88    
Maximum Humidity 93    
Minimum Humidity 83    
Precipitation  
Precipitation 0.26 in 0.18 in 2.44 in (1979)
Month to date precipitation 1.64 3.44  
Year to date precipitation 53.38 46.46  
Snow  
Snow 0.00 in - - ()
Month to date snowfall 0.0  
Snow Depth 0.00 in    
Sea Level Pressure  
Sea Level Pressure 30.27 in    
Wind  
Wind Speed 11 mph (NNW)    
Max Wind Speed 21 mph    
Max Gust Speed 24 mph    
Visibility 7 miles    
Events Rain    
T = Trace of Precipitation, MM = Missing Value Source: NWS Daily Summary

Daily Weather History Graph

Daily Weather History Graph

Search for Another Location

Airport or City:

Astronomy

Nov. 22, 2013 Rise Set
Actual Time 6:38 AM CST 4:45 PM CST
Civil Twilight 6:10 AM CST 5:12 PM CST
Nautical Twilight 5:39 AM CST 5:43 PM CST
Astronomical Twilight 5:09 AM CST 6:14 PM CST
Moon 9:14 PM CST (11/22) 10:23 AM CST (11/22)
Length of Visible Light 11h 01m
Length of Day
10h 06m
Waning Gibbous, 78% of the Moon is Illuminated
Nov 22
Waning Gibbous
Nov 25
Last Quarter
Dec 2
New
Dec 9
First Quarter
Dec 17
Full

Hourly Weather History & Observations

Time (CST) Temp. Windchill Dew Point Humidity Pressure Visibility Wind Dir Wind Speed Gust Speed Precip Events Conditions
12:53 AM 60.1 °F - 57.0 °F 90% 30.18 in 10.0 mi South 6.9 mph - N/A   Overcast
1:04 AM 60.8 °F - 57.2 °F 88% 30.20 in 10.0 mi South 9.2 mph - N/A   Overcast
1:53 AM 60.1 °F - 57.0 °F 90% 30.19 in 10.0 mi South 9.2 mph - N/A   Overcast
2:00 AM 60.8 °F - 57.2 °F 88% 30.20 in 10.0 mi South 8.1 mph - N/A   Overcast
2:32 AM 59.0 °F - 57.2 °F 94% 30.19 in 5.0 mi South 6.9 mph - 0.00 in   Overcast
2:53 AM 59.0 °F - 57.0 °F 93% 30.19 in 4.0 mi South 5.8 mph - 0.01 in Rain Light Rain
3:53 AM 59.0 °F - 57.0 °F 93% 30.19 in 5.0 mi SSW 5.8 mph - 0.01 in   Overcast
4:53 AM 59.0 °F - 57.0 °F 93% 30.19 in 8.0 mi SSW 5.8 mph - 0.03 in Rain Light Rain
5:09 AM 59.0 °F - 57.2 °F 94% 30.19 in 4.0 mi SSW 6.9 mph - 0.03 in Rain Rain
5:30 AM 59.0 °F - 57.2 °F 94% 30.19 in 7.0 mi SSW 5.8 mph - 0.06 in Rain Light Rain
5:38 AM 59.0 °F - 57.2 °F 94% 30.19 in 7.0 mi SSW 6.9 mph - 0.06 in Rain Light Rain
5:53 AM 59.0 °F - 57.0 °F 93% 30.19 in 7.0 mi South 6.9 mph - 0.08 in Rain Rain
6:53 AM 60.1 °F - 57.9 °F 93% 30.20 in 10.0 mi South 3.5 mph - 0.04 in Rain Light Rain
7:53 AM 59.0 °F - 57.9 °F 96% 30.25 in 8.0 mi NW 4.6 mph - 0.04 in Rain Light Rain
8:04 AM 59.0 °F - 57.2 °F 94% 30.24 in 1.8 mi Calm Calm - 0.02 in Rain Rain
8:14 AM 59.0 °F - 57.2 °F 94% 30.25 in 2.0 mi Calm Calm - 0.03 in Rain Light Rain
8:19 AM 59.0 °F - 57.2 °F 94% 30.25 in 3.0 mi NNW 5.8 mph - 0.03 in Rain Light Rain
8:53 AM 59.0 °F - 57.9 °F 96% 30.25 in 5.0 mi North 5.8 mph - 0.04 in   Overcast
9:05 AM 59.0 °F - 57.2 °F 94% 30.26 in 4.0 mi North 5.8 mph - N/A   Overcast
9:19 AM 59.0 °F - 57.2 °F 94% 30.27 in 2.0 mi North 5.8 mph - 0.00 in Rain Light Rain
9:33 AM 60.8 °F - 57.2 °F 88% 30.27 in 4.0 mi NNW 6.9 mph - 0.01 in   Overcast
9:53 AM 59.0 °F - 57.0 °F 93% 30.27 in 5.0 mi North 16.1 mph 20.7 mph 0.01 in   Overcast
10:04 AM 57.2 °F - 55.4 °F 94% 30.28 in 10.0 mi North 12.7 mph - N/A   Overcast
10:53 AM 57.0 °F - 55.0 °F 93% 30.28 in 10.0 mi North 12.7 mph - N/A   Overcast
11:53 AM 57.0 °F - 53.1 °F 87% 30.28 in 10.0 mi North 12.7 mph - N/A   Overcast
12:00 PM 55.4 °F - 53.6 °F 94% 30.28 in 10.0 mi North 13.8 mph - N/A   Overcast
12:53 PM 54.0 °F - 51.1 °F 90% 30.28 in 10.0 mi North 17.3 mph 23.0 mph N/A   Overcast
1:13 PM 53.6 °F - 51.8 °F 94% 30.29 in 6.0 mi NNW 13.8 mph - N/A   Overcast
1:53 PM 53.1 °F - 50.0 °F 89% 30.29 in 4.0 mi North 12.7 mph - N/A   Overcast
2:12 PM 51.8 °F - 48.2 °F 88% 30.29 in 2.5 mi North 15.0 mph - N/A   Overcast
2:25 PM 51.8 °F - 48.2 °F 88% 30.29 in 3.0 mi North 13.8 mph - N/A   Overcast
2:53 PM 51.1 °F - 48.0 °F 89% 30.29 in 8.0 mi North 12.7 mph - N/A   Overcast
3:20 PM 51.8 °F - 46.4 °F 82% 30.31 in 10.0 mi NNW 13.8 mph - N/A   Overcast
3:53 PM 50.0 °F - 46.0 °F 86% 30.32 in 10.0 mi North 16.1 mph - N/A   Overcast
4:53 PM 48.0 °F - 44.1 °F 86% 30.33 in 8.0 mi North 13.8 mph - N/A   Overcast
5:07 PM 46.4 °F 40.1 °F 44.6 °F 93% 30.34 in 7.0 mi North 15.0 mph - N/A   Overcast
5:53 PM 46.0 °F 39.9 °F 43.0 °F 89% 30.36 in 8.0 mi North 13.8 mph - N/A   Overcast
6:53 PM 46.0 °F 39.0 °F 42.1 °F 86% 30.37 in 8.0 mi North 17.3 mph 21.9 mph N/A   Overcast
7:53 PM 45.0 °F 38.5 °F 41.0 °F 86% 30.37 in 9.0 mi NNE 13.8 mph - N/A   Overcast
8:53 PM 45.0 °F 38.5 °F 41.0 °F 86% 30.38 in 8.0 mi NNE 13.8 mph - N/A   Overcast
9:53 PM 45.0 °F 38.9 °F 39.9 °F 82% 30.38 in 8.0 mi North 12.7 mph - N/A   Overcast
10:46 PM 44.6 °F 39.7 °F 39.2 °F 81% 30.39 in 8.0 mi North 9.2 mph - N/A   Overcast
10:53 PM 44.1 °F 38.6 °F 39.9 °F 85% 30.40 in 8.0 mi North 10.4 mph - N/A   Overcast
11:53 PM 44.1 °F 38.6 °F 39.0 °F 82% 30.38 in 10.0 mi NNE 10.4 mph - N/A   Overcast